Location: Mountain View
(37.3861°N, 122.0839°W)
Time: 16:46:25
(UTC-07:00)

ISS - Pass Details

Date: 30 September 2021
Orbit: 417 x 423 km, 51.6° (Epoch: 20 October)

Event Time Altitude Azimuth Distance (km) Brightness Sun altitude
Rises 19:36:53 0° 321° (NW) 2,365 0.7 -9.7°
Reaches altitude 10° 19:40:38 10° 5° (N) 1,502 -0.9 -10.4°
Maximum altitude 19:41:19 10° 16° (NNE) 1,475 -1.1 -10.6°
Drops below altitude 10° 19:42:00 10° 28° (NNE) 1,503 -1.2 -10.7°
Enters shadow 19:43:12 - 46° (NE) 1,670 -1.1 -10.9°
